Time,TemperatureF,DewpointF,PressureIn,WindDirection,WindDirectionDegrees,WindSpeedMPH,WindSpeedGustMPH,Humidity,HourlyPrecipIn,Conditions,Clouds,dailyrainin,SoftwareType,DateUTC
2013-04-13 00:02:00,22.0,21.0,-100.00,SW,225,2.0,2.0,93,0.00,,,-99.99,,2013-04-13 06:02:00,
2013-04-13 00:12:00,22.0,20.0,-100.00,SW,235,0.0,2.0,93,0.00,,,-99.99,,2013-04-13 06:12:00,
2013-04-13 00:24:00,21.0,19.0,-100.00,South,190,0.0,1.0,93,0.00,,,-99.99,,2013-04-13 06:24:00,
2013-04-13 00:53:00,21.0,19.0,-100.00,SW,215,0.0,1.0,93,0.00,,,-99.99,,2013-04-13 06:53:00,
2013-04-13 01:05:00,20.0,19.0,-100.00,SSW,210,0.0,4.0,93,0.00,,,-99.99,,2013-04-13 07:05:00,
2013-04-13 01:14:00,23.0,22.0,-100.00,West,265,4.0,6.0,94,0.00,,,-99.99,,2013-04-13 07:14:00,
2013-04-13 01:24:00,25.0,23.0,-100.00,WSW,255,4.0,6.0,92,0.00,,,-99.99,,2013-04-13 07:24:00,
2013-04-13 01:34:00,25.0,23.0,-100.00,WSW,245,4.0,7.0,89,0.00,,,-99.99,,2013-04-13 07:34:00,
2013-04-13 01:44:00,26.0,22.0,-100.00,WSW,255,6.0,8.0,85,0.00,,,-99.99,,2013-04-13 07:44:00,
2013-04-13 01:54:00,27.0,21.0,-100.00,SW,235,7.0,11.0,77,0.00,,,-99.99,,2013-04-13 07:54:00,
2013-04-13 02:06:00,28.0,20.0,-100.00,WSW,245,6.0,11.0,74,0.00,,,-99.99,,2013-04-13 08:06:00,
2013-04-13 02:15:00,27.0,20.0,-100.00,WSW,245,6.0,8.0,73,0.00,,,-99.99,,2013-04-13 08:15:00,
2013-04-13 02:25:00,26.0,19.0,-100.00,SW,235,6.0,9.0,74,0.00,,,-99.99,,2013-04-13 08:25:00,
2013-04-13 02:34:00,26.0,19.0,-100.00,WSW,240,5.0,7.0,76,0.00,,,-99.99,,2013-04-13 08:34:00,
2013-04-13 02:45:00,26.0,19.0,-100.00,SW,230,2.0,7.0,76,0.00,,,-99.99,,2013-04-13 08:45:00,
2013-04-13 02:54:00,25.0,19.0,-100.00,WSW,240,4.0,6.0,77,0.00,,,-99.99,,2013-04-13 08:54:00,
2013-04-13 03:14:00,25.0,19.0,-100.00,SW,230,4.0,7.0,77,0.00,,,-99.99,,2013-04-13 09:14:00,
2013-04-13 03:24:00,26.0,19.0,-100.00,SW,230,4.0,9.0,74,0.00,,,-99.99,,2013-04-13 09:24:00,
2013-04-13 03:36:00,27.0,18.0,-100.00,SW,230,9.0,14.0,67,0.00,,,-99.99,,2013-04-13 09:36:00,
2013-04-13 03:49:00,26.0,17.0,-100.00,WSW,245,6.0,14.0,68,0.00,,,-99.99,,2013-04-13 09:49:00,
2013-04-13 04:05:00,27.0,17.0,-100.00,SW,225,7.0,11.0,65,0.00,,,-99.99,,2013-04-13 10:05:00,
2013-04-13 04:15:00,27.0,17.0,-100.00,SW,235,8.0,12.0,65,0.00,,,-99.99,,2013-04-13 10:15:00,
2013-04-13 04:24:00,28.0,17.0,-100.00,SW,220,9.0,14.0,65,0.00,,,-99.99,,2013-04-13 10:24:00,
2013-04-13 04:36:00,28.0,17.0,-100.00,SW,220,10.0,15.0,64,0.00,,,-99.99,,2013-04-13 10:36:00,
2013-04-13 04:45:00,28.0,17.0,-100.00,SSW,210,10.0,17.0,63,0.00,,,-99.99,,2013-04-13 10:45:00,
2013-04-13 04:53:00,28.0,17.0,-100.00,SSW,210,9.0,14.0,62,0.00,,,-99.99,,2013-04-13 10:53:00,
2013-04-13 05:06:00,28.0,17.0,-100.00,SW,225,6.0,16.0,62,0.00,,,-99.99,,2013-04-13 11:06:00,
2013-04-13 05:13:00,27.0,16.0,-100.00,SW,235,7.0,12.0,63,0.00,,,-99.99,,2013-04-13 11:13:00,
2013-04-13 05:24:00,27.0,16.0,-100.00,SW,230,7.0,14.0,63,0.00,,,-99.99,,2013-04-13 11:24:00,
2013-04-13 05:34:00,26.0,16.0,-100.00,SW,235,7.0,13.0,65,0.00,,,-99.99,,2013-04-13 11:34:00,
2013-04-13 05:44:00,25.0,16.0,-100.00,SW,235,5.0,10.0,67,0.00,,,-99.99,,2013-04-13 11:44:00,
2013-04-13 05:53:00,24.0,16.0,-100.00,SW,235,4.0,9.0,71,0.00,,,-99.99,,2013-04-13 11:53:00,
2013-04-13 06:08:00,24.0,16.0,-100.00,WSW,240,6.0,9.0,70,0.00,,,-99.99,,2013-04-13 12:08:00,
2013-04-13 06:14:00,24.0,16.0,-100.00,SW,220,6.0,10.0,71,0.00,,,-99.99,,2013-04-13 12:14:00,
2013-04-13 06:24:00,24.0,17.0,-100.00,SW,230,6.0,9.0,71,0.00,,,-99.99,,2013-04-13 12:24:00,
2013-04-13 06:35:00,24.0,16.0,-100.00,WSW,240,6.0,12.0,71,0.00,,,-99.99,,2013-04-13 12:35:00,
2013-04-13 06:46:00,24.0,16.0,-100.00,SW,215,9.0,12.0,72,0.00,,,-99.99,,2013-04-13 12:46:00,
2013-04-13 06:54:00,22.0,16.0,-100.00,WSW,240,7.0,13.0,76,0.00,,,-99.99,,2013-04-13 12:54:00,
2013-04-13 07:05:00,23.0,16.0,-100.00,SW,215,9.0,13.0,75,0.00,,,-99.99,,2013-04-13 13:05:00,
2013-04-13 07:15:00,25.0,17.0,-100.00,SW,230,9.0,13.0,71,0.00,,,-99.99,,2013-04-13 13:15:00,
2013-04-13 07:27:00,26.0,17.0,-100.00,SW,230,8.0,13.0,68,0.00,,,-99.99,,2013-04-13 13:27:00,
2013-04-13 07:34:00,27.0,17.0,-100.00,SW,225,8.0,14.0,65,0.00,,,-99.99,,2013-04-13 13:34:00,
2013-04-13 07:47:00,28.0,16.0,-100.00,SW,215,8.0,14.0,61,0.00,,,-99.99,,2013-04-13 13:47:00,
2013-04-13 07:53:00,30.0,16.0,-100.00,SSW,210,4.0,9.0,55,0.00,,,-99.99,,2013-04-13 13:53:00,
2013-04-13 08:04:00,31.0,16.0,-100.00,SW,215,6.0,10.0,54,0.00,,,-99.99,,2013-04-13 14:04:00,
2013-04-13 08:14:00,31.0,16.0,-100.00,SW,215,8.0,11.0,52,0.00,,,-99.99,,2013-04-13 14:14:00,
2013-04-13 08:23:00,32.0,16.0,-100.00,SSW,200,8.0,16.0,51,0.00,,,-99.99,,2013-04-13 14:23:00,
2013-04-13 08:37:00,32.0,16.0,-100.00,SSW,205,11.0,19.0,51,0.00,,,-99.99,,2013-04-13 14:37:00,
2013-04-13 08:45:00,32.0,16.0,-100.00,SW,225,13.0,17.0,49,0.00,,,-99.99,,2013-04-13 14:45:00,
2013-04-13 09:14:00,35.0,17.0,-100.00,SW,215,10.0,19.0,47,0.00,,,-99.99,,2013-04-13 15:14:00,
2013-04-13 09:28:00,34.0,16.0,-100.00,SW,230,11.0,19.0,46,0.00,,,-99.99,,2013-04-13 15:28:00,
2013-04-13 09:35:00,35.0,16.0,-100.00,South,185,11.0,21.0,45,0.00,,,-99.99,,2013-04-13 15:35:00,
2013-04-13 09:44:00,35.0,16.0,-100.00,SSW,205,11.0,18.0,44,0.00,,,-99.99,,2013-04-13 15:44:00,
2013-04-13 09:55:00,35.0,15.0,-100.00,SSW,210,16.0,21.0,43,0.00,,,-99.99,,2013-04-13 15:55:00,
2013-04-13 10:06:00,34.0,14.0,-100.00,SW,215,17.0,25.0,43,0.00,,,-99.99,,2013-04-13 16:06:00,
2013-04-13 10:15:00,35.0,15.0,-100.00,SW,220,11.0,22.0,43,0.00,,,-99.99,,2013-04-13 16:15:00,
2013-04-13 10:24:00,36.0,16.0,-100.00,SW,220,12.0,19.0,42,0.00,,,-99.99,,2013-04-13 16:24:00,
2013-04-13 10:45:00,35.0,15.0,-100.00,SW,230,17.0,32.0,42,0.00,,,-99.99,,2013-04-13 16:45:00,
2013-04-13 10:55:00,36.0,15.0,-100.00,SW,215,11.0,29.0,42,0.00,,,-99.99,,2013-04-13 16:55:00,
2013-04-13 11:05:00,36.0,15.0,-100.00,SW,225,14.0,23.0,42,0.00,,,-99.99,,2013-04-13 17:05:00,
2013-04-13 11:20:00,36.0,13.0,-100.00,SW,230,15.0,29.0,38,0.00,,,-99.99,,2013-04-13 17:20:00,
2013-04-13 11:37:00,37.0,14.0,-100.00,SSW,205,15.0,27.0,39,0.00,,,-99.99,,2013-04-13 17:37:00,
2013-04-13 11:44:00,38.0,15.0,-100.00,SSE,155,12.0,27.0,38,0.00,,,-99.99,,2013-04-13 17:44:00,
2013-04-13 11:58:00,37.0,14.0,-100.00,South,190,12.0,26.0,38,0.00,,,-99.99,,2013-04-13 17:58:00,
2013-04-13 12:05:00,37.0,14.0,-100.00,South,185,14.0,24.0,38,0.00,,,-99.99,,2013-04-13 18:05:00,
2013-04-13 12:15:00,37.0,15.0,-100.00,SW,220,16.0,30.0,39,0.00,,,-99.99,,2013-04-13 18:15:00,
2013-04-13 12:24:00,38.0,16.0,-100.00,SSW,210,16.0,25.0,39,0.00,,,-99.99,,2013-04-13 18:24:00,
2013-04-13 12:33:00,38.0,16.0,-100.00,SW,215,18.0,29.0,39,0.00,,,-99.99,,2013-04-13 18:33:00,
2013-04-13 12:42:00,39.0,16.0,-100.00,SSW,210,13.0,29.0,39,0.00,,,-99.99,,2013-04-13 18:42:00,
2013-04-13 12:52:00,38.0,15.0,-100.00,SSW,210,12.0,32.0,38,0.00,,,-99.99,,2013-04-13 18:52:00,
2013-04-13 13:03:00,39.0,15.0,-100.00,SSW,200,13.0,27.0,38,0.00,,,-99.99,,2013-04-13 19:03:00,
2013-04-13 13:12:00,40.0,16.0,-100.00,SSW,200,11.0,22.0,37,0.00,,,-99.99,,2013-04-13 19:12:00,
2013-04-13 13:22:00,40.0,15.0,-100.00,SW,220,16.0,27.0,36,0.00,,,-99.99,,2013-04-13 19:22:00,
2013-04-13 13:32:00,40.0,16.0,-100.00,SSW,210,15.0,34.0,37,0.00,,,-99.99,,2013-04-13 19:32:00,
2013-04-13 13:42:00,40.0,17.0,-100.00,SW,215,15.0,34.0,38,0.00,,,-99.99,,2013-04-13 19:42:00,
2013-04-13 13:52:00,40.0,16.0,-100.00,SW,230,20.0,31.0,37,0.00,,,-99.99,,2013-04-13 19:52:00,
2013-04-13 14:02:00,41.0,16.0,-100.00,South,190,14.0,29.0,35,0.00,,,-99.99,,2013-04-13 20:02:00,
2013-04-13 14:12:00,39.0,15.0,-100.00,SW,225,17.0,34.0,35,0.00,,,-99.99,,2013-04-13 20:12:00,
2013-04-13 14:22:00,41.0,16.0,-100.00,SW,215,13.0,27.0,36,0.00,,,-99.99,,2013-04-13 20:22:00,
2013-04-13 14:32:00,40.0,15.0,-100.00,SSW,205,9.0,30.0,36,0.00,,,-99.99,,2013-04-13 20:32:00,
2013-04-13 14:42:00,40.0,16.0,-100.00,SW,220,14.0,31.0,37,0.00,,,-99.99,,2013-04-13 20:42:00,
2013-04-13 14:52:00,40.0,16.0,-100.00,SW,220,19.0,29.0,38,0.00,,,-99.99,,2013-04-13 20:52:00,
2013-04-13 15:02:00,39.0,16.0,-100.00,SW,220,12.0,35.0,38,0.00,,,-99.99,,2013-04-13 21:02:00,
2013-04-13 15:12:00,40.0,16.0,-100.00,SSW,210,19.0,27.0,38,0.00,,,-99.99,,2013-04-13 21:12:00,
2013-04-13 15:22:00,41.0,17.0,-100.00,South,185,10.0,29.0,38,0.00,,,-99.99,,2013-04-13 21:22:00,
2013-04-13 15:33:00,40.0,16.0,-100.00,SSW,210,14.0,30.0,37,0.00,,,-99.99,,2013-04-13 21:33:00,
2013-04-13 15:43:00,40.0,16.0,-100.00,SW,215,22.0,36.0,37,0.00,,,-99.99,,2013-04-13 21:43:00,
2013-04-13 15:52:00,40.0,16.0,-100.00,SSW,205,17.0,30.0,37,0.00,,,-99.99,,2013-04-13 21:52:00,
2013-04-13 16:03:00,40.0,16.0,-100.00,SW,220,21.0,32.0,36,0.00,,,-99.99,,2013-04-13 22:03:00,
2013-04-13 16:12:00,40.0,16.0,-100.00,SSW,210,18.0,33.0,36,0.00,,,-99.99,,2013-04-13 22:12:00,
2013-04-13 16:22:00,41.0,15.0,-100.00,SSW,210,20.0,31.0,34,0.00,,,-99.99,,2013-04-13 22:22:00,
2013-04-13 16:33:00,41.0,14.0,-100.00,SSW,210,17.0,30.0,33,0.00,,,-99.99,,2013-04-13 22:33:00,
2013-04-13 16:42:00,40.0,14.0,-100.00,SSW,200,19.0,27.0,33,0.00,,,-99.99,,2013-04-13 22:42:00,
2013-04-13 16:52:00,41.0,14.0,-100.00,SE,145,13.0,27.0,32,0.00,,,-99.99,,2013-04-13 22:52:00,
2013-04-13 17:02:00,40.0,13.0,-100.00,SSW,200,21.0,30.0,32,0.00,,,-99.99,,2013-04-13 23:02:00,
2013-04-13 17:12:00,41.0,14.0,-100.00,SW,215,15.0,32.0,32,0.00,,,-99.99,,2013-04-13 23:12:00,
2013-04-13 17:22:00,41.0,13.0,-100.00,SW,220,24.0,42.0,31,0.00,,,-99.99,,2013-04-13 23:22:00,
2013-04-13 17:32:00,41.0,13.0,-100.00,SSW,205,17.0,37.0,31,0.00,,,-99.99,,2013-04-13 23:32:00,
2013-04-13 17:42:00,41.0,13.0,-100.00,SSW,200,16.0,32.0,31,0.00,,,-99.99,,2013-04-13 23:42:00,
2013-04-13 17:52:00,41.0,13.0,-100.00,South,190,16.0,27.0,31,0.00,,,-99.99,,2013-04-13 23:52:00,
2013-04-13 18:02:00,40.0,13.0,-100.00,South,190,21.0,30.0,31,0.00,,,-99.99,,2013-04-14 00:02:00,
2013-04-13 18:12:00,40.0,12.0,-100.00,SW,215,26.0,41.0,32,0.00,,,-99.99,,2013-04-14 00:12:00,
2013-04-13 18:22:00,39.0,13.0,-100.00,SW,220,17.0,34.0,33,0.00,,,-99.99,,2013-04-14 00:22:00,
2013-04-13 18:32:00,39.0,13.0,-100.00,SW,225,14.0,26.0,33,0.00,,,-99.99,,2013-04-14 00:32:00,
2013-04-13 18:42:00,39.0,13.0,-100.00,WSW,250,15.0,28.0,33,0.00,,,-99.99,,2013-04-14 00:42:00,
2013-04-13 18:52:00,39.0,13.0,-100.00,SSW,210,16.0,28.0,33,0.00,,,-99.99,,2013-04-14 00:52:00,
2013-04-13 19:02:00,39.0,13.0,-100.00,SW,215,18.0,29.0,33,0.00,,,-99.99,,2013-04-14 01:02:00,
2013-04-13 19:12:00,39.0,13.0,-100.00,SSW,200,16.0,29.0,34,0.00,,,-99.99,,2013-04-14 01:12:00,
2013-04-13 19:22:00,38.0,13.0,-100.00,SSW,205,12.0,21.0,34,0.00,,,-99.99,,2013-04-14 01:22:00,
2013-04-13 19:32:00,38.0,13.0,-100.00,SSW,205,14.0,25.0,34,0.00,,,-99.99,,2013-04-14 01:32:00,
2013-04-13 19:42:00,38.0,13.0,-100.00,SW,215,15.0,27.0,34,0.00,,,-99.99,,2013-04-14 01:42:00,
2013-04-13 19:52:00,38.0,13.0,-100.00,SW,215,6.0,16.0,35,0.00,,,-99.99,,2013-04-14 01:52:00,
2013-04-13 20:02:00,38.0,13.0,-100.00,SSW,200,11.0,19.0,35,0.00,,,-99.99,,2013-04-14 02:02:00,
2013-04-13 20:12:00,38.0,13.0,-100.00,SW,225,19.0,30.0,35,0.00,,,-99.99,,2013-04-14 02:12:00,
2013-04-13 20:22:00,37.0,13.0,-100.00,SW,215,17.0,29.0,35,0.00,,,-99.99,,2013-04-14 02:22:00,
2013-04-13 20:32:00,38.0,13.0,-100.00,SSW,195,13.0,29.0,35,0.00,,,-99.99,,2013-04-14 02:32:00,
2013-04-13 20:42:00,38.0,13.0,-100.00,South,180,14.0,30.0,35,0.00,,,-99.99,,2013-04-14 02:42:00,
2013-04-13 20:52:00,38.0,13.0,-100.00,SW,230,19.0,39.0,35,0.00,,,-99.99,,2013-04-14 02:52:00,
2013-04-13 21:02:00,38.0,13.0,-100.00,SW,225,21.0,40.0,35,0.00,,,-99.99,,2013-04-14 03:02:00,
2013-04-13 21:12:00,39.0,14.0,-100.00,SSW,210,19.0,38.0,35,0.00,,,-99.99,,2013-04-14 03:12:00,
2013-04-13 21:22:00,39.0,14.0,-100.00,SW,235,19.0,34.0,35,0.00,,,-99.99,,2013-04-14 03:22:00,
2013-04-13 21:33:00,39.0,13.0,-100.00,SW,220,21.0,32.0,35,0.00,,,-99.99,,2013-04-14 03:33:00,
2013-04-13 21:42:00,38.0,13.0,-100.00,SW,225,12.0,32.0,35,0.00,,,-99.99,,2013-04-14 03:42:00,
2013-04-13 21:53:00,39.0,14.0,-100.00,SSW,205,13.0,25.0,35,0.00,,,-99.99,,2013-04-14 03:53:00,
2013-04-13 22:02:00,38.0,14.0,-100.00,SSW,205,14.0,27.0,36,0.00,,,-99.99,,2013-04-14 04:02:00,
2013-04-13 22:12:00,38.0,15.0,-100.00,SW,215,17.0,30.0,37,0.00,,,-99.99,,2013-04-14 04:12:00,
2013-04-13 22:23:00,37.0,16.0,-100.00,South,185,17.0,37.0,43,0.00,,,-99.99,,2013-04-14 04:23:00,
2013-04-13 22:33:00,37.0,17.0,-100.00,SW,225,16.0,34.0,44,0.00,,,-99.99,,2013-04-14 04:33:00,
2013-04-13 22:43:00,37.0,18.0,-100.00,SSW,210,17.0,40.0,45,0.00,,,-99.99,,2013-04-14 04:43:00,
2013-04-13 22:52:00,36.0,19.0,-100.00,SW,220,26.0,40.0,49,0.00,,,-99.99,,2013-04-14 04:52:00,
2013-04-13 23:02:00,36.0,20.0,-100.00,SSW,210,14.0,38.0,49,0.00,,,-99.99,,2013-04-14 05:02:00,
2013-04-13 23:12:00,37.0,19.0,-100.00,SW,215,12.0,36.0,48,0.00,,,-99.99,,2013-04-14 05:12:00,
2013-04-13 23:22:00,38.0,19.0,-100.00,SW,235,11.0,28.0,45,0.00,,,-99.99,,2013-04-14 05:22:00,
2013-04-13 23:32:00,38.0,18.0,-100.00,SW,230,15.0,24.0,44,0.00,,,-99.99,,2013-04-14 05:32:00,
2013-04-13 23:42:00,38.0,18.0,-100.00,SSW,195,16.0,32.0,43,0.00,,,-99.99,,2013-04-14 05:42:00,
2013-04-13 23:52:00,38.0,18.0,-100.00,WSW,240,21.0,31.0,42,0.00,,,-99.99,,2013-04-14 05:52:00,